Wind_Speed
49 50 50 51 52 54 55 56 56 57 57 56 56 54 54 54 51 52 53 53 53 53 52 52 51 50 49 48 48 47 47 46 45 45 44 43 42 41
48 49 50 51 52 53 54 55 56 57 57 57 57 56 55 55 54 53 54 54 53 53 53 53 52 52 51 50 49 49 48 48 48 47 46 45 45 44
47 47 48 50 51 52 52 54 55 57 58 57 57 57 56 56 55 55 56 55 55 55 55 54 53 53 52 52 52 51 51 51 51 50 49 49 47 47
46 46 47 48 49 51 52 54 55 57 58 58 58 59 59 58 58 58 58 57 57 57 57 56 55 55 55 55 55 55 54 54 53 53 52 51 51 50
43 45 46 46 48 49 51 53 53 55 57 57 58 59 59 59 59 60 59 58 58 58 58 58 58 57 57 58 58 57 57 56 55 54 53 52 51 51
41 43 44 46 47 49 50 51 52 53 54 55 57 57 59 59 59 60 60 60 59 60 60 60 60 59 59 60 60 60 58 58 56 55 53 52 52 52
40 42 43 45 46 47 48 50 51 52 54 55 56 57 58 59 60 60 60 60 60 60 61 61 61 61 61 62 62 61 59 58 57 56 55 53 53 52
38 40 41 42 44 45 47 49 50 52 53 54 55 57 58 59 59 60 60 61 61 62 63 62 62 61 61 62 62 61 61 60 59 58 57 56 55 54
38 39 40 41 43 44 45 47 49 50 52 53 54 54 55 57 58 59 61 61 61 61 63 63 64 64 63 63 62 62 62 61 60 60 59 58 56 55
37 39 40 42 43 44 46 47 48 49 51 53 54 56 57 58 59 60 61 62 62 63 64 64 64 64 64 63 63 63 62 63 62 62 60 59 57 56
36 38 40 42 43 45 46 47 48 50 52 54 55 56 57 59 60 61 62 63 63 63 63 63 63 64 63 62 62 63 63 62 62 61 60 58 58 57
37 39 41 42 43 44 46 48 50 51 53 55 56 56 58 58 60 62 63 62 62 61 61 61 61 62 61 61 61 61 61 60 59 58 58 57 57 57
38 40 41 43 44 45 47 48 49 51 52 54 55 56 56 57 58 60 62 63 61 59 60 60 59 60 60 59 58 58 58 57 57 56 55 55 56 57
40 41 42 43 44 45 46 47 48 49 50 52 53 54 55 55 56 57 58 60 59 59 59 59 58 58 58 57 56 56 56 55 55 55 54 55 55 56
42 43 44 44 45 46 46 47 48 49 50 51 52 53 53 54 55 56 56 56 56 56 56 56 56 55 55 55 54 55 55 55 55 55 55 55 55 55
43 44 45 45 46 46 46 47 48 49 50 50 51 52 53 53 54 54 54 54 53 53 54 54 53 53 53 52 53 53 53 54 54 55 54 54 53 54
45 45 46 46 46 47 47 48 48 49 50 50 50 50 51 52 53 53 53 53 52 51 51 51 52 52 51 51 51 51 51 52 52 53 53 53 52 53
46 46 46 46 46 47 47 48 48 49 49 49 49 49 49 50 50 50 49 48 48 48 48 47 47 47 47 47 47 47 47 48 49 49 50 51 51 51
46 46 46 46 46 46 47 47 48 48 48 47 47 47 46 46 45 44 44 43 42 42 43 43 43 43 42 41 41 42 42 43 44 45 46 47 48 48
46 46 46 45 45 46 46 46 45 44 44 44 44 43 42 41 39 38 38 37 37 37 37 38 38 38 37 36 35 35 36 38 39 39 40 41 42 43
46 46 45 45 44 44 44 43 42 41 40 40 39 39 38 36 35 33 32 32 32 31 32 33 33 33 32 31 31 31 32 33 34 34 34 35 36 37
45 44 43 42 41 40 40 39 38 38 37 37 36 34 32 31 29 29 28 28 28 28 27 28 28 28 28 29 29 29 29 29 30 30 30 31 32 33
42 41 40 39 38 37 37 36 35 35 34 33 32 30 28 27 26 25 24 24 24 24 24 24 25 25 26 26 26 25 26 27 27 27 27 28 28 29
Wind_Direction
256 256 256 257 257 257 257 257 257 256 255 257 259 259 260 261 261 262 263 264 264 265 266 266 265 265 266 267 269 270 269 270 271 270 270 271 272 270
257 258 258 259 259 259 258 257 258 258 258 258 259 260 260 261 262 263 263 264 264 265 266 266 266 265 265 266 267 268 268 269 269 269 268 270 270 269
258 259 260 260 259 259 260 260 259 259 260 258 259 260 261 260 262 263 263 264 264 265 265 265 265 265 265 265 265 267 268 268 267 268 267 268 268 268
259 260 263 262 262 261 261 261 261 261 261 260 260 261 262 262 262 263 264 263 264 264 264 264 264 265 265 264 265 267 267 267 267 267 267 267 267 266
262 263 264 263 264 264 263 263 263 263 262 262 261 261 262 263 263 263 263 264 264 264 264 265 265 265 265 264 265 266 266 266 266 266 266 267 267 265
266 267 266 266 266 266 265 264 264 264 263 264 263 263 263 263 264 263 263 263 264 264 264 264 264 264 265 265 265 265 265 265 265 264 264 266 266 265
269 270 270 269 268 267 266 265 266 265 265 265 265 264 264 264 264 265 264 265 265 265 265 264 264 264 265 264 264 264 264 264 264 263 263 263 264 263
273 273 273 272 270 269 268 268 268 267 267 267 266 265 265 265 266 266 266 266 266 266 265 264 264 264 265 264 264 263 262 263 263 262 262 262 262 260
277 276 275 276 275 274 272 271 270 269 269 268 269 268 268 268 267 268 268 268 268 266 265 264 265 265 264 263 262 261 261 262 261 261 261 261 261 258
282 280 279 279 278 277 275 273 272 271 271 271 271 270 270 270 269 269 268 268 268 267 266 266 265 264 263 263 262 261 261 261 260 260 259 259 258 257
285 284 283 281 280 278 277 276 275 274 272 273 273 272 271 271 270 270 270 270 269 267 267 267 264 263 263 263 262 262 261 260 260 259 257 256 256 256
288 287 286 284 282 281 280 278 277 276 275 275 274 274 273 272 272 271 271 271 270 268 267 267 266 265 263 261 261 261 260 259 259 258 256 255 255 255
291 290 288 287 286 285 284 282 280 279 278 277 276 276 274 273 272 272 272 271 270 269 268 267 266 266 265 262 261 260 259 258 257 256 255 255 255 254
293 292 292 290 289 288 287 285 284 283 282 280 279 278 277 275 274 274 273 272 271 270 269 268 267 266 265 263 261 259 258 257 257 255 255 255 255 255
294 294 293 292 291 290 289 288 287 286 285 283 282 281 279 278 276 275 275 273 272 271 269 267 267 265 263 262 261 259 257 256 256 255 255 255 254 255
296 295 295 294 293 292 291 290 289 289 287 286 284 282 280 279 278 276 275 273 272 270 269 267 265 264 263 262 261 259 257 256 255 254 254 254 254 255
297 296 296 295 294 293 292 292 291 291 289 288 287 285 282 280 279 277 275 273 271 269 268 267 265 264 263 262 261 259 258 256 255 254 253 252 252 253
297 297 297 296 294 294 294 294 293 292 291 290 289 288 286 283 280 277 275 273 271 269 267 266 264 263 263 263 260 258 256 255 254 253 253 252 251 251
299 299 299 297 296 295 296 296 295 294 293 292 291 290 289 287 283 278 275 273 271 269 267 265 264 262 262 260 258 257 256 254 253 253 252 252 250 249
300 300 299 298 297 297 297 297 296 295 295 294 293 293 291 288 284 279 276 272 270 269 266 264 263 261 260 259 257 255 255 255 254 252 251 250 248 246
301 300 299 298 298 298 298 297 298 298 298 296 295 294 292 289 284 280 276 272 268 267 265 263 262 260 257 257 255 253 254 254 253 250 248 246 244 242
302 302 300 299 299 299 299 299 299 299 299 298 296 295 292 289 285 281 275 270 268 267 265 262 260 257 255 255 254 252 251 249 247 247 246 243 241 238
305 304 303 302 301 301 301 301 300 300 300 299 297 295 292 289 286 281 276 271 269 267 264 262 258 256 256 255 253 248 247 247 245 244 241 239 237 234
Height
5664 5664 5666 5667 5668 5670 5671 5673 5675 5678 5682 5685 5687 5688 5688 5689 5691 5691 5692 5693 5694 5694 5695 5695 5696 5697 5697 5698 5698 5698 5698 5698 5698 5698 5698 5698 5698 5698
5651 5652 5653 5654 5655 5656 5657 5659 5660 5662 5666 5671 5672 5673 5674 5675 5676 5677 5678 5679 5679 5679 5680 5681 5681 5682 5683 5683 5684 5684 5684 5685 5685 5685 5685 5686 5686 5686
5640 5640 5641 5642 5642 5643 5645 5645 5647 5648 5650 5655 5656 5657 5658 5659 5660 5661 5662 5662 5663 5664 5664 5665 5666 5667 5667 5668 5669 5669 5670 5671 5671 5672 5672 5672 5672 5673
5628 5629 5629 5630 5630 5631 5632 5632 5633 5633 5635 5639 5641 5642 5642 5643 5644 5645 5646 5646 5647 5648 5648 5649 5650 5650 5651 5652 5653 5654 5654 5655 5656 5657 5657 5658 5658 5659
5617 5617 5618 5618 5618 5618 5618 5619 5619 5619 5620 5622 5624 5625 5626 5626 5627 5628 5628 5629 5629 5630 5631 5632 5633 5633 5634 5635 5636 5637 5638 5639 5640 5640 5641 5642 5643 5643
5607 5606 5606 5606 5606 5605 5605 5605 5604 5605 5605 5606 5607 5608 5609 5609 5609 5610 5611 5612 5612 5612 5613 5614 5615 5615 5616 5618 5619 5620 5620 5621 5622 5623 5624 5625 5626 5627
5596 5595 5594 5593 5593 5592 5591 5591 5590 5590 5590 5590 5591 5591 5591 5592 5592 5593 5593 5594 5594 5594 5595 5595 5596 5597 5597 5598 5599 5600 5601 5603 5604 5605 5607 5608 5610 5611
5586 5584 5583 5581 5580 5579 5578 5577 5576 5575 5575 5575 5574 5574 5574 5574 5575 5575 5575 5575 5576 5577 5576 5577 5576 5578 5579 5579 5580 5581 5582 5584 5586 5587 5589 5591 5592 5594
5575 5573 5571 5569 5568 5566 5564 5563 5561 5560 5559 5559 5558 5557 5557 5557 5557 5557 5556 5555 5556 5556 5555 5557 5557 5557 5558 5559 5560 5561 5563 5564 5566 5568 5570 5572 5574 5576
5565 5562 5560 5557 5555 5553 5550 5548 5546 5544 5543 5542 5542 5540 5539 5537 5537 5536 5536 5536 5536 5535 5533 5535 5536 5537 5538 5538 5538 5540 5542 5544 5546 5548 5550 5552 5554 5557
5554 5550 5547 5545 5542 5539 5536 5534 5532 5529 5527 5525 5524 5522 5520 5518 5517 5516 5515 5514 5515 5514 5512 5512 5514 5515 5517 5518 5518 5518 5520 5522 5524 5526 5529 5532 5535 5538
5543 5539 5535 5531 5528 5524 5521 5519 5516 5513 5510 5508 5505 5503 5501 5499 5496 5495 5494 5493 5492 5493 5492 5491 5492 5492 5496 5498 5498 5498 5499 5501 5503 5506 5509 5512 5515 5518
5531 5527 5522 5518 5514 5510 5506 5503 5499 5496 5493 5490 5487 5484 5482 5479 5477 5475 5473 5472 5472 5472 5472 5471 5472 5471 5473 5477 5479 5479 5479 5481 5484 5486 5489 5492 5495 5499
5519 5514 5509 5505 5500 5496 5491 5487 5483 5479 5476 5473 5470 5467 5464 5461 5459 5456 5454 5452 5451 5451 5451 5450 5452 5452 5453 5456 5459 5460 5461 5462 5465 5468 5471 5474 5477 5480
5506 5501 5496 5491 5486 5481 5477 5472 5468 5464 5460 5456 5453 5450 5446 5443 5440 5438 5435 5433 5432 5431 5431 5431 5432 5433 5434 5436 5439 5441 5443 5445 5447 5450 5453 5456 5460 5463
5493 5488 5483 5477 5472 5467 5462 5458 5453 5449 5444 5440 5436 5432 5429 5425 5422 5420 5417 5416 5414 5413 5412 5412 5413 5414 5416 5418 5420 5422 5423 5426 5429 5431 5435 5438 5442 5445
5480 5475 5469 5464 5458 5453 5448 5443 5438 5433 5428 5424 5419 5415 5411 5408 5405 5402 5400 5398 5397 5397 5396 5395 5396 5397 5398 5400 5401 5403 5405 5408 5410 5413 5416 5420 5424 5427
5466 5460 5455 5449 5444 5439 5434 5428 5423 5418 5413 5408 5403 5399 5395 5391 5388 5385 5382 5381 5380 5380 5380 5380 5380 5380 5381 5382 5383 5385 5388 5390 5393 5395 5398 5403 5407 5410
5452 5446 5440 5435 5430 5424 5419 5414 5408 5403 5398 5393 5388 5384 5380 5376 5372 5369 5367 5366 5365 5364 5364 5364 5364 5365 5367 5368 5369 5370 5372 5374 5376 5379 5382 5386 5391 5394
5438 5432 5427 5421 5416 5410 5405 5399 5394 5389 5384 5379 5374 5369 5365 5361 5358 5355 5354 5353 5352 5352 5351 5351 5351 5353 5354 5356 5357 5358 5358 5361 5363 5366 5368 5371 5375 5379
5424 5418 5413 5407 5402 5397 5391 5386 5381 5376 5371 5366 5362 5357 5353 5349 5346 5344 5343 5342 5341 5341 5341 5341 5341 5342 5343 5344 5346 5347 5348 5349 5352 5354 5357 5360 5363 5367
5411 5405 5399 5394 5389 5384 5379 5374 5369 5364 5360 5355 5351 5347 5343 5340 5337 5335 5334 5333 5332 5332 5332 5332 5332 5333 5334 5335 5337 5338 5339 5340 5342 5344 5347 5350 5353 5358
5399 5393 5387 5382 5377 5372 5368 5363 5359 5354 5350 5345 5341 5338 5334 5331 5329 5327 5326 5325 5325 5324 5324 5324 5325 5325 5326 5327 5328 5330 5331 5333 5335 5337 5339 5342 5345 5349